Location: Unspecified
(40.7945°N, 111.1337°W)
Time: 08:35:22
(UTC-06:00)

Courier 1B - Visible Passes

Search period start: 16 June 2019 00:00
Search period end: 26 June 2019 00:00
Orbit: 963 x 1209 km, 28.3° (Epoch: 16 June)

Date Brightness Start Highest point End Pass type
(mag) Time Alt. Az. Time Alt. Az. Time Alt. Az.
16 Jun 8.6 23:04:16 10° SW 23:10:52 31° S 23:12:36 29° SSE visible
17 Jun 9.5 00:57:50 10° WSW 00:59:31 16° WSW 00:59:31 16° WSW visible
17 Jun 8.7 22:10:45 10° SW 22:17:08 29° S 22:22:13 15° ESE visible
18 Jun 8.8 00:03:59 10° WSW 00:09:06 29° SSW 00:09:06 29° SSW visible
18 Jun 8.6 23:10:15 10° WSW 23:16:53 32° S 23:18:33 30° SSE visible
19 Jun 9.7 01:04:19 10° WSW 01:05:27 14° WSW 01:05:27 14° WSW visible
19 Jun 8.6 22:16:38 10° SW 22:23:08 32° S 22:27:57 17° SE visible
20 Jun 9.0 00:10:19 10° WSW 00:14:49 25° SSW 00:14:49 25° SSW visible
20 Jun 8.7 21:23:07 10° SW 21:29:24 30° S 21:35:56 10° ESE visible
20 Jun 8.6 23:16:28 10° WSW 23:22:54 30° S 23:24:08 29° S visible
21 Jun 8.7 22:22:45 10° WSW 22:29:09 31° S 22:33:24 19° SE visible
22 Jun 9.3 00:16:59 10° WSW 00:20:16 19° SW 00:20:16 19° SW visible
22 Jun 8.7 21:29:07 10° WSW 21:35:26 31° S 21:42:01 10° ESE visible
22 Jun 8.9 23:22:57 10° WSW 23:28:52 25° SSW 23:29:32 25° S visible
23 Jun 8.8 22:29:06 10° WSW 22:35:10 27° S 22:38:46 19° SSE visible
24 Jun 9.7 00:24:21 10° WSW 00:25:37 13° SW 00:25:37 13° SW visible
24 Jun 8.8 21:35:22 10° WSW 21:41:28 29° S 21:47:50 10° SE visible
24 Jun 9.2 23:29:54 10° WSW 23:34:49 19° SSW 23:34:52 19° SSW visible
25 Jun 9.1 22:35:47 10° WSW 22:41:09 22° SSW 22:44:07 17° SSE visible
